Temperature
9 8 8 8 8 8 8 9 9 10 11 12 12 12 11 10 9 8 8 7 7 6 6 6 6 6 6 6 6 6 6 6 5 5 5 5 5 5 5 5 5 5 5 5
7 8 8 8 8 8 8 9 9 10 10 11 11 10 10 9 8 8 7 7 6 6 6 6 5 5 5 5 5 5 5 5 5 4 4 4 4 4 4 4 4 4 4 4
7 7 6 7 8 9 9 9 9 9 10 11 10 10 9 8 8 7 6 6 6 5 5 5 5 4 4 4 4 4 4 4 4 4 4 4 4 4 4 3 4 4 4 4
6 5 6 10 9 9 9 9 9 9 9 9 9 8 8 7 7 6 6 5 5 5 4 4 4 4 4 4 3 3 3 3 3 3 3 3 3 3 3 3 3 3 3 3
5 6 7 9 8 8 7 8 9 9 9 8 7 7 7 7 6 5 5 4 4 4 4 3 3 3 3 3 3 3 3 3 3 2 2 2 2 2 2 2 2 2 2 2
5 5 6 9 8 7 8 7 9 8 8 8 7 7 8 6 5 5 4 4 3 3 3 3 3 3 2 2 2 2 2 2 2 2 2 2 2 2 2 2 2 2 1 2
5 5 7 9 7 6 7 8 8 7 7 7 7 7 6 5 4 4 3 3 3 3 3 2 2 2 2 2 1 1 1 1 1 1 1 1 1 1 1 1 1 1 1 1
5 5 6 7 6 7 8 7 7 6 6 6 6 5 5 4 4 3 3 2 2 2 2 2 1 1 1 1 1 1 0 0 1 1 0 0 0 0 0 -0 -0 -0 0 0
6 7 8 6 7 7 6 6 6 6 5 5 5 4 4 3 3 2 2 2 1 1 1 1 1 0 0 0 -0 -0 -0 -0 -0 -0 -0 -1 -1 -1 -1 -1 -1 -1 -1 -1
5 6 6 5 5 5 5 5 5 4 4 4 3 3 3 2 2 1 1 1 1 1 0 0 0 -0 -0 -1 -1 -1 -1 -1 -1 -1 -1 -1 -1 -2 -2 -2 -2 -2 -2 -1
5 6 5 5 4 4 4 4 4 4 3 3 2 2 2 1 1 1 1 0 0 -0 -0 -0 -1 -1 -1 -1 -1 -2 -2 -2 -2 -2 -2 -2 -2 -2 -3 -2 -2 -2 -2 -2
5 6 5 5 4 4 4 3 3 3 2 2 2 1 1 1 0 0 -0 -0 -1 -1 -1 -1 -1 -1 -2 -2 -2 -2 -2 -2 -3 -3 -3 -3 -3 -3 -3 -3 -3 -3 -3 -3
5 4 4 4 3 3 3 3 2 2 2 1 1 1 0 -0 -0 -0 -1 -1 -1 -1 -2 -2 -2 -2 -2 -2 -3 -3 -3 -3 -3 -4 -4 -4 -4 -4 -4 -3 -3 -3 -3 -3
3 3 3 2 2 2 2 2 1 1 1 0 0 -0 -0 -1 -1 -1 -1 -2 -2 -2 -2 -2 -2 -2 -3 -3 -3 -3 -3 -4 -4 -4 -4 -4 -4 -5 -5 -4 -4 -4 -3 -3
2 2 2 1 1 1 1 1 0 0 -0 -1 -1 -1 -1 -1 -2 -2 -2 -2 -2 -3 -3 -3 -3 -3 -3 -3 -3 -4 -4 -4 -4 -5 -5 -5 -5 -5 -5 -5 -5 -4 -4 -3
1 1 0 0 0 0 -0 -0 -1 -1 -1 -1 -1 -2 -2 -2 -2 -2 -3 -3 -3 -3 -3 -3 -3 -3 -3 -4 -4 -4 -4 -4 -5 -5 -5 -5 -5 -5 -5 -5 -5 -5 -5 -4
-1 -1 -1 -1 -1 -1 -1 -1 -1 -1 -2 -2 -2 -2 -2 -2 -3 -3 -3 -3 -3 -3 -4 -4 -4 -4 -4 -4 -4 -5 -5 -5 -5 -5 -5 -5 -6 -6 -6 -6 -6 -6 -5 -5
-1 -1 -1 -1 -1 -1 -1 -2 -2 -2 -2 -2 -2 -2 -3 -3 -3 -3 -3 -3 -4 -4 -4 -4 -4 -5 -5 -5 -5 -5 -5 -5 -5 -5 -5 -6 -6 -6 -6 -6 -6 -6 -5 -5
-2 -2 -2 -2 -2 -2 -2 -2 -2 -3 -3 -3 -3 -3 -3 -3 -4 -4 -4 -4 -4 -4 -5 -5 -5 -5 -5 -5 -5 -5 -5 -6 -6 -6 -6 -6 -6 -6 -6 -6 -6 -6 -6 -6
-2 -2 -2 -2 -2 -3 -3 -3 -3 -3 -3 -3 -4 -4 -4 -4 -4 -4 -4 -5 -5 -5 -5 -5 -5 -6 -6 -6 -6 -6 -6 -6 -6 -6 -6 -6 -6 -6 -6 -6 -6 -6 -6 -6
-3 -3 -3 -3 -3 -3 -3 -4 -4 -4 -4 -4 -4 -4 -4 -4 -5 -5 -5 -5 -5 -6 -6 -6 -6 -6 -6 -6 -6 -6 -6 -6 -6 -6 -6 -6 -7 -6 -6 -6 -6 -6 -6 -6
-4 -4 -4 -4 -4 -4 -4 -4 -4 -4 -5 -5 -5 -5 -5 -5 -5 -6 -6 -6 -6 -6 -6 -6 -6 -7 -7 -7 -6 -7 -7 -7 -7 -7 -7 -7 -7 -7 -7 -7 -6 -6 -6 -6
-4 -4 -4 -4 -4 -5 -5 -5 -5 -5 -5 -5 -6 -6 -6 -6 -6 -6 -6 -6 -7 -7 -7 -7 -7 -7 -7 -7 -7 -7 -7 -7 -7 -7 -7 -7 -7 -7 -7 -7 -7 -7 -7 -6
-5 -5 -5 -5 -5 -5 -5 -6 -6 -6 -6 -6 -6 -6 -7 -7 -7 -7 -7 -7 -7 -7 -7 -7 -7 -7 -7 -7 -7 -7 -7 -7 -7 -8 -8 -8 -8 -7 -7 -7 -7 -7 -7 -7
-6 -6 -6 -6 -6 -6 -6 -7 -7 -7 -7 -7 -7 -7 -7 -8 -8 -7 -7 -7 -8 -8 -8 -8 -8 -8 -8 -8 -8 -8 -8 -8 -8 -8 -8 -8 -8 -8 -8 -7 -7 -7 -7 -7
-6 -6 -7 -7 -7 -7 -7 -7 -7 -7 -7 -8 -8 -8 -8 -8 -8 -8 -8 -8 -8 -8 -8 -8 -8 -8 -8 -8 -8 -8 -8 -8 -8 -8 -8 -8 -8 -8 -8 -8 -7 -7 -7 -7
-7 -7 -7 -7 -7 -8 -8 -8 -8 -8 -8 -8 -8 -8 -9 -9 -9 -9 -8 -8 -8 -8 -8 -8 -9 -9 -8 -8 -8 -8 -8 -8 -8 -8 -8 -8 -8 -8 -8 -8 -8 -7 -7 -7
Wind_Speed
11 8 7 10 13 15 17 18 17 19 20 19 16 14 12 10 8 7 7 7 7 7 7 8 8 7 7 8 8 8 8 7 8 8 8 8 8 8 8 9 9 9 10 10
10 11 11 15 17 18 20 20 22 23 24 18 14 11 10 9 7 7 8 8 8 8 8 8 8 7 7 8 8 8 8 8 8 8 9 9 9 9 9 9 9 9 10 10
9 7 7 15 18 21 18 18 17 21 20 14 12 11 10 8 7 8 8 8 8 9 8 8 7 7 7 8 8 8 8 8 8 9 9 9 9 9 9 9 9 9 10 10
5 5 12 9 4 12 16 18 18 17 15 13 12 10 8 7 7 7 7 8 8 8 7 7 7 7 7 7 8 8 8 8 8 9 9 9 9 10 9 8 8 9 9 10
6 9 12 10 6 7 10 11 13 15 14 11 7 5 7 5 5 6 7 7 7 7 7 7 7 7 7 8 8 8 8 9 9 9 9 9 10 9 8 8 8 9 8 9
7 8 9 6 4 6 5 9 7 9 10 8 5 6 5 1 3 5 6 5 6 6 7 7 6 6 7 8 8 9 9 10 9 9 9 9 9 9 8 8 8 8 8 8
14 11 10 5 5 9 7 5 3 6 7 7 7 6 4 3 4 5 5 6 6 6 6 6 6 6 7 8 8 9 9 10 9 9 9 9 9 7 8 8 8 8 8 8
10 11 11 6 9 9 6 1 3 4 5 6 6 6 5 4 5 5 6 6 6 6 6 6 6 6 8 8 9 9 9 9 9 8 7 7 8 7 7 7 7 7 7 7
9 9 3 7 7 5 3 4 5 5 5 6 6 6 5 5 6 6 6 6 6 6 7 6 6 6 8 8 8 9 9 9 8 8 7 7 7 7 6 6 5 6 6 6
8 10 8 7 7 7 6 6 6 6 6 6 7 6 6 6 6 6 6 6 6 6 7 7 7 7 7 8 8 8 9 8 7 7 7 7 6 5 5 5 5 5 6 6
12 10 8 9 9 8 7 6 6 6 6 6 7 7 7 6 6 6 5 5 5 6 7 8 7 7 6 7 7 7 7 7 7 6 6 6 6 5 6 6 6 6 5 6
11 9 8 9 7 7 7 8 7 7 6 6 6 7 7 6 6 5 5 5 5 6 7 7 7 7 6 6 6 7 6 6 5 5 5 5 5 6 6 7 9 9 9 8
14 12 10 9 8 8 8 8 7 7 7 7 6 5 6 6 5 5 5 5 6 6 7 7 6 7 6 6 6 7 6 6 5 5 5 5 5 5 6 7 7 8 8 9
11 10 10 10 9 7 7 6 5 5 5 5 4 4 4 5 5 5 5 5 6 6 6 6 6 6 6 6 6 7 6 6 6 5 5 5 5 5 5 6 7 6 7 9
9 9 9 8 6 6 4 4 3 4 3 3 3 4 4 5 5 5 5 5 5 5 5 5 6 6 6 6 6 6 6 5 5 5 5 5 5 5 5 5 6 6 6 7
6 5 5 6 6 5 4 4 4 4 4 4 3 4 4 4 4 4 4 4 4 5 5 6 6 6 6 6 6 5 5 6 6 5 4 4 4 4 4 5 5 5 6 6
5 5 5 5 5 4 4 4 4 4 4 4 3 3 3 3 3 4 4 4 4 5 5 5 6 6 6 6 6 4 4 5 6 5 4 4 4 4 4 4 5 5 5 6
4 5 4 4 4 3 3 2 2 2 3 3 3 2 3 3 4 4 4 4 4 4 5 5 5 5 5 5 5 4 4 4 3 4 3 3 4 4 4 4 5 5 5 6
0 0 0 1 1 2 2 2 2 2 2 2 2 2 3 3 3 3 3 3 4 5 5 5 6 6 5 6 5 4 3 3 3 3 3 4 4 4 4 4 4 4 4 4
3 2 2 2 2 1 0 1 1 1 1 1 2 2 2 2 2 3 3 3 3 4 5 6 6 5 5 5 5 3 3 3 3 3 3 3 4 4 4 4 4 4 4 4
3 3 3 2 2 2 1 1 0 1 1 1 1 2 2 2 2 2 3 3 4 4 5 6 5 4 4 4 5 3 3 3 3 3 3 3 3 4 4 4 4 4 4 4
2 2 2 2 1 2 2 1 0 0 0 0 0 1 1 2 2 3 3 3 4 6 5 4 4 5 6 6 4 3 3 3 3 3 3 3 3 3 4 4 4 3 3 3
1 1 1 1 1 1 2 2 1 1 0 1 1 1 2 2 2 3 3 3 4 6 5 4 6 7 7 4 3 3 3 3 3 3 3 3 3 3 3 4 3 3 3 3
1 1 1 1 1 1 1 2 2 1 1 1 2 2 2 2 2 3 3 5 6 6 5 6 7 7 6 3 3 3 3 3 3 3 3 3 3 3 3 3 3 3 3 3
1 1 1 0 0 1 1 2 1 1 1 1 2 2 2 2 2 3 3 4 6 6 5 6 7 6 4 3 3 3 3 3 3 3 3 3 3 2 2 2 2 3 3 3
0 0 0 1 1 1 1 1 1 1 1 2 2 2 2 2 3 3 3 4 5 6 5 4 4 4 3 3 3 3 3 3 3 3 2 2 2 2 2 2 3 2 2 2
0 0 0 1 1 1 1 1 1 2 2 2 3 3 3 3 3 3 3 4 4 4 4 3 3 3 3 3 3 3 3 2 2 2 2 2 2 2 2 2 2 2 2 2
Wind_Direction
250 258 242 237 233 225 229 237 249 257 260 267 275 281 283 284 284 286 290 298 302 306 314 319 319 322 323 321 323 321 309 301 298 298 299 298 297 296 295 292 290 285 283 277
247 248 249 255 249 241 241 245 250 259 264 271 275 276 275 274 274 279 290 299 305 308 311 314 314 317 319 320 322 319 311 306 304 302 300 299 299 297 294 292 291 288 283 280
250 248 263 256 244 238 238 236 241 252 261 268 268 271 274 275 274 280 289 299 307 310 311 312 313 313 313 317 318 316 312 308 308 305 301 300 300 297 295 292 292 288 286 284
239 222 243 257 235 229 236 244 242 248 259 266 272 277 277 268 269 279 289 298 306 309 310 311 312 312 311 312 312 311 311 310 310 308 302 301 299 296 295 293 289 288 286 285
215 240 262 261 228 206 220 249 243 244 254 261 272 276 266 256 260 279 292 298 303 307 307 306 308 312 309 307 309 308 308 309 309 307 305 305 302 299 296 294 291 289 287 285
218 234 246 256 180 180 199 255 238 231 241 246 229 256 275 273 281 297 303 303 305 306 305 302 306 309 305 305 307 308 309 309 308 307 304 302 302 302 301 299 295 295 290 286
228 240 256 254 160 161 211 253 180 207 219 222 228 259 289 287 293 300 303 304 303 302 301 302 307 306 302 303 304 309 309 307 308 307 303 302 303 302 303 304 301 298 296 290
220 233 246 177 162 198 240 280 199 219 225 233 249 268 270 276 288 297 300 300 300 298 298 302 304 302 299 301 308 311 309 308 309 311 310 307 308 306 302 302 301 301 300 301
218 234 273 179 203 231 250 247 252 253 249 246 255 259 266 275 283 291 296 299 298 293 295 299 302 299 297 304 311 310 308 309 312 314 312 308 306 305 304 305 304 306 306 307
246 251 252 243 248 252 249 255 260 260 258 255 257 263 271 277 283 290 297 300 299 293 293 297 303 301 299 305 308 307 307 310 312 312 314 315 311 308 308 304 303 306 309 311
248 258 267 256 249 251 251 246 249 256 255 252 257 265 271 275 280 287 294 297 294 290 291 296 302 301 305 307 308 308 309 311 312 312 311 314 315 312 311 305 300 302 304 305
246 249 251 261 262 257 252 254 259 267 269 264 259 264 268 271 276 282 286 289 287 288 292 297 301 302 306 308 308 307 307 310 311 309 310 310 311 315 319 314 318 316 314 311
258 265 263 270 274 269 261 262 267 265 267 271 271 264 265 271 276 275 279 282 283 286 288 293 297 299 305 311 308 303 300 301 303 303 305 307 309 312 318 325 324 323 325 325
257 258 261 262 263 263 262 265 267 268 268 264 265 265 262 267 271 272 278 286 287 287 289 292 294 298 308 310 305 301 300 299 299 298 300 302 305 309 313 317 323 328 333 333
255 250 251 257 263 265 261 252 248 255 258 261 260 258 260 266 271 277 285 291 288 285 290 295 297 303 311 309 303 302 303 303 302 301 300 301 304 308 310 313 316 321 326 333
251 247 239 243 251 255 250 241 242 248 249 255 260 264 268 271 276 283 288 290 287 290 296 299 299 304 310 308 305 302 301 303 303 302 301 301 304 307 311 315 318 319 323 329
233 241 239 240 243 248 246 242 240 243 246 252 261 270 273 274 279 287 294 299 293 293 297 299 302 308 308 305 304 303 303 302 304 302 298 299 301 304 309 312 314 317 321 327
242 246 242 239 238 241 248 250 241 241 250 259 263 262 262 266 277 292 303 309 307 305 308 307 310 312 308 309 309 306 301 301 303 302 300 299 300 304 306 308 313 317 322 328
21 224 240 228 221 215 225 244 252 255 258 247 243 254 267 277 284 292 299 300 304 309 319 322 321 318 314 316 319 309 307 306 304 299 295 298 302 302 304 309 314 319 323 327
63 64 70 68 61 86 201 252 263 268 261 233 233 252 275 293 299 296 293 294 300 306 310 313 315 314 315 315 320 311 308 304 303 303 302 301 302 306 312 317 320 323 324 327
69 68 71 75 61 43 25 333 275 270 280 233 223 247 275 295 300 292 290 297 310 321 316 313 316 314 314 315 313 308 306 305 305 305 305 306 307 310 314 318 319 321 323 327
68 70 71 71 66 30 11 13 19 340 2 333 270 267 282 299 305 299 290 289 305 318 319 312 313 314 319 316 309 309 309 309 307 305 304 303 303 305 309 313 314 319 323 325
67 68 61 58 61 37 32 36 36 33 337 298 283 279 283 290 293 289 300 308 312 316 317 310 313 317 322 322 311 306 305 306 305 303 301 299 296 296 300 304 310 317 321 326
76 63 51 55 80 75 32 2 0 354 337 317 299 289 288 295 298 292 290 305 316 315 312 312 319 323 325 317 307 304 302 301 301 300 300 299 299 300 302 306 312 318 323 325
102 96 100 91 42 347 327 327 337 340 338 329 320 314 302 289 286 300 304 307 314 317 314 315 322 326 325 313 310 306 304 299 298 299 299 303 306 308 310 313 316 318 321 323
136 237 309 303 287 290 295 296 302 310 317 320 324 325 323 314 304 304 305 309 311 314 313 308 310 316 316 311 309 307 303 302 303 302 298 300 304 307 308 314 318 317 318 321
95 333 326 323 320 305 294 288 287 296 298 300 309 315 317 316 315 318 315 313 313 313 312 310 311 314 313 309 308 307 305 302 300 298 297 299 301 301 302 304 309 315 318 323
Height
1437 1438 1440 1439 1439 1441 1441 1436 1434 1425 1422 1419 1420 1423 1424 1425 1425 1425 1424 1423 1422 1420 1417 1415 1412 1410 1407 1404 1402 1399 1396 1394 1391 1389 1387 1384 1382 1379 1377 1375 1373 1370 1369 1367
1438 1437 1437 1436 1432 1432 1432 1430 1427 1424 1419 1417 1420 1421 1421 1422 1422 1422 1421 1419 1418 1416 1413 1411 1409 1406 1404 1401 1398 1395 1392 1390 1387 1384 1382 1379 1376 1373 1371 1369 1367 1365 1363 1361
1432 1434 1436 1429 1420 1421 1421 1419 1420 1417 1413 1414 1416 1417 1417 1418 1418 1418 1417 1416 1414 1412 1410 1407 1405 1403 1400 1397 1394 1391 1388 1385 1382 1379 1376 1373 1371 1368 1365 1363 1361 1358 1356 1354
1433 1437 1432 1409 1410 1411 1412 1411 1412 1411 1411 1412 1413 1414 1414 1414 1415 1414 1414 1412 1410 1408 1406 1404 1402 1399 1397 1394 1391 1387 1384 1381 1378 1374 1371 1368 1365 1362 1360 1357 1355 1353 1350 1348
1431 1426 1412 1406 1408 1410 1411 1408 1407 1407 1408 1409 1411 1412 1410 1410 1411 1411 1410 1409 1407 1405 1402 1400 1398 1395 1392 1389 1387 1383 1380 1377 1373 1370 1366 1363 1360 1357 1355 1352 1350 1347 1345 1343
1425 1421 1411 1399 1403 1406 1409 1405 1402 1403 1404 1406 1409 1407 1406 1408 1408 1408 1407 1405 1403 1401 1398 1396 1394 1391 1388 1385 1382 1379 1376 1372 1368 1365 1361 1358 1355 1352 1350 1347 1345 1342 1340 1338
1416 1413 1401 1398 1403 1406 1407 1398 1399 1400 1402 1403 1405 1404 1405 1405 1405 1404 1403 1401 1399 1397 1394 1392 1389 1387 1384 1381 1378 1375 1371 1367 1364 1360 1356 1353 1350 1348 1345 1343 1340 1337 1335 1333
1409 1409 1401 1397 1401 1400 1395 1396 1398 1399 1400 1401 1401 1402 1402 1401 1401 1400 1399 1397 1395 1392 1390 1388 1385 1383 1380 1377 1374 1370 1367 1363 1359 1355 1352 1349 1346 1343 1341 1338 1336 1333 1330 1328
1396 1393 1391 1393 1393 1394 1395 1396 1396 1397 1398 1398 1398 1398 1398 1397 1397 1396 1394 1393 1391 1388 1386 1384 1381 1379 1376 1373 1370 1366 1362 1359 1355 1352 1349 1346 1343 1340 1337 1335 1332 1329 1327 1324
1394 1390 1390 1391 1391 1392 1392 1393 1393 1394 1394 1395 1394 1394 1394 1393 1393 1391 1390 1388 1386 1384 1382 1379 1377 1375 1372 1369 1365 1362 1359 1355 1352 1348 1345 1343 1340 1337 1335 1332 1329 1327 1324 1322
1389 1387 1389 1388 1388 1389 1389 1389 1390 1390 1390 1390 1390 1390 1390 1389 1388 1387 1385 1384 1382 1380 1378 1375 1373 1370 1368 1365 1362 1359 1355 1352 1349 1346 1342 1339 1337 1335 1332 1329 1327 1325 1322 1320
1382 1382 1384 1383 1384 1385 1385 1385 1385 1385 1385 1385 1385 1385 1385 1384 1383 1382 1381 1379 1378 1376 1373 1371 1368 1366 1364 1361 1359 1356 1352 1349 1346 1343 1340 1337 1334 1331 1329 1327 1324 1322 1319 1318
1378 1379 1379 1379 1380 1380 1380 1380 1381 1381 1381 1381 1381 1381 1380 1379 1378 1377 1376 1375 1373 1371 1369 1367 1365 1362 1360 1358 1355 1352 1349 1346 1343 1341 1338 1335 1332 1329 1326 1324 1321 1319 1316 1314
1374 1375 1375 1375 1375 1375 1376 1376 1376 1376 1376 1376 1376 1376 1375 1374 1374 1373 1372 1370 1369 1367 1365 1363 1361 1359 1357 1354 1352 1349 1346 1344 1341 1338 1336 1333 1330 1328 1325 1322 1318 1315 1314 1312
1369 1370 1370 1370 1370 1371 1371 1371 1371 1371 1371 1372 1372 1371 1371 1370 1369 1368 1367 1366 1365 1363 1361 1359 1357 1355 1353 1351 1348 1346 1343 1341 1339 1336 1334 1331 1329 1326 1324 1321 1318 1315 1312 1310
1364 1364 1365 1366 1366 1366 1367 1367 1367 1367 1368 1368 1367 1367 1367 1366 1365 1365 1364 1363 1361 1359 1357 1356 1354 1352 1350 1347 1345 1343 1341 1338 1336 1334 1331 1329 1327 1324 1322 1320 1317 1314 1311 1309
1361 1361 1362 1362 1362 1363 1363 1363 1364 1364 1364 1364 1364 1364 1363 1362 1362 1361 1360 1359 1358 1356 1354 1352 1350 1348 1346 1344 1342 1340 1338 1336 1334 1331 1329 1327 1325 1323 1321 1318 1316 1313 1311 1309
1357 1358 1358 1359 1359 1359 1360 1360 1360 1361 1361 1361 1361 1360 1360 1359 1358 1357 1356 1355 1354 1352 1351 1349 1347 1345 1343 1341 1339 1337 1335 1333 1331 1329 1327 1325 1323 1321 1319 1317 1315 1313 1310 1308
1355 1355 1356 1356 1357 1357 1357 1357 1358 1358 1358 1358 1358 1357 1357 1356 1355 1354 1353 1352 1350 1349 1347 1345 1344 1342 1340 1338 1337 1335 1333 1331 1329 1327 1325 1323 1321 1319 1318 1316 1314 1312 1310 1308
1354 1354 1354 1355 1355 1355 1355 1355 1355 1355 1355 1355 1355 1354 1354 1353 1352 1351 1350 1349 1348 1346 1344 1342 1341 1339 1337 1335 1334 1332 1330 1328 1326 1325 1323 1321 1319 1318 1316 1315 1313 1311 1310 1308
1353 1353 1354 1354 1354 1354 1354 1353 1353 1353 1352 1352 1352 1351 1351 1350 1349 1348 1347 1346 1345 1343 1341 1340 1338 1336 1334 1333 1331 1329 1328 1326 1324 1322 1321 1319 1318 1316 1315 1314 1312 1311 1309 1308
1353 1353 1353 1353 1353 1352 1352 1352 1351 1351 1350 1350 1349 1349 1348 1347 1347 1346 1344 1343 1342 1340 1339 1337 1335 1334 1332 1331 1329 1327 1325 1324 1322 1321 1319 1317 1316 1315 1314 1312 1311 1310 1309 1308
1353 1353 1352 1352 1352 1351 1351 1350 1350 1349 1348 1348 1347 1347 1346 1345 1344 1343 1342 1341 1339 1338 1336 1334 1333 1331 1330 1328 1326 1325 1323 1322 1320 1319 1317 1316 1315 1313 1312 1311 1310 1309 1308 1307
1352 1352 1352 1351 1351 1350 1349 1349 1348 1348 1347 1346 1346 1345 1344 1343 1342 1341 1339 1338 1337 1335 1334 1332 1331 1329 1328 1326 1324 1323 1321 1320 1319 1317 1316 1315 1314 1312 1311 1310 1309 1309 1308 1306
1351 1351 1350 1350 1349 1349 1348 1348 1347 1346 1345 1344 1344 1343 1342 1341 1340 1338 1337 1335 1334 1333 1331 1330 1328 1327 1325 1324 1322 1321 1320 1319 1317 1316 1315 1314 1312 1311 1310 1309 1308 1308 1307 1306
1349 1349 1349 1348 1348 1347 1347 1346 1345 1344 1343 1342 1341 1341 1339 1338 1337 1336 1334 1333 1332 1330 1329 1327 1326 1325 1323 1322 1321 1319 1318 1317 1316 1315 1314 1312 1311 1310 1309 1308 1308 1307 1306 1306
1348 1347 1347 1346 1346 1346 1345 1344 1343 1342 1341 1340 1339 1338 1337 1336 1335 1334 1332 1331 1329 1328 1326 1325 1324 1322 1321 1320 1319 1317 1316 1315 1314 1313 1312 1311 1310 1309 1308 1308 1307 1306 1306 1305